Time,TemperatureF,DewpointF,PressureIn,WindDirection,WindDirectionDegrees,WindSpeedMPH,WindSpeedGustMPH,Humidity,HourlyPrecipIn,Conditions,Clouds,dailyrainin,SoftwareType,DateUTC
2013-04-04 00:00:00,40.1,21.0,30.30,East,95,4.0,4.0,46,0.00,,,0.00,Wunderground v.1.15,2013-04-04 05:00:00,
2013-04-04 00:05:00,40.1,21.0,30.30,East,97,4.0,4.0,46,0.00,,,0.00,Wunderground v.1.15,2013-04-04 05:05:00,
2013-04-04 00:10:00,40.0,20.9,30.30,East,89,3.0,3.0,46,0.00,,,0.00,Wunderground v.1.15,2013-04-04 05:10:00,
2013-04-04 00:15:00,39.8,20.7,30.30,East,91,3.0,3.0,46,0.00,,,0.00,Wunderground v.1.15,2013-04-04 05:15:00,
2013-04-04 00:20:00,39.8,20.7,30.29,East,95,3.0,3.0,46,0.00,,,0.00,Wunderground v.1.15,2013-04-04 05:20:00,
2013-04-04 00:25:00,39.6,21.0,30.29,East,94,3.0,4.0,47,0.00,,,0.00,Wunderground v.1.15,2013-04-04 05:25:00,
2013-04-04 00:30:00,39.4,21.3,30.29,ESE,103,4.0,4.0,48,0.00,,,0.00,Wunderground v.1.15,2013-04-04 05:30:00,
2013-04-04 00:35:00,39.2,21.1,30.29,East,97,4.0,4.0,48,0.00,,,0.00,Wunderground v.1.15,2013-04-04 05:35:00,
2013-04-04 00:40:00,39.3,20.7,30.29,ESE,106,4.0,4.0,47,0.00,,,0.00,Wunderground v.1.15,2013-04-04 05:40:00,
2013-04-04 00:45:00,39.3,21.2,30.29,ESE,107,4.0,4.0,48,0.00,,,0.00,Wunderground v.1.15,2013-04-04 05:45:00,
2013-04-04 00:50:00,39.0,20.9,30.29,ESE,105,4.0,4.0,48,0.00,,,0.00,Wunderground v.1.15,2013-04-04 05:50:00,
2013-04-04 00:55:00,38.8,21.3,30.29,ESE,105,4.0,4.0,49,0.00,,,0.00,Wunderground v.1.15,2013-04-04 05:55:00,
2013-04-04 01:00:00,38.5,21.5,30.28,ESE,108,4.0,4.0,50,0.00,,,0.00,Wunderground v.1.15,2013-04-04 06:00:00,
2013-04-04 01:05:00,38.3,21.3,30.28,ESE,113,4.0,4.0,50,0.00,,,0.00,Wunderground v.1.15,2013-04-04 06:05:00,
2013-04-04 01:10:00,38.2,21.6,30.28,ESE,119,4.0,4.0,51,0.00,,,0.00,Wunderground v.1.15,2013-04-04 06:10:00,
2013-04-04 01:15:00,38.0,21.5,30.28,ESE,113,4.0,4.0,51,0.00,,,0.00,Wunderground v.1.15,2013-04-04 06:15:00,
2013-04-04 01:20:00,37.9,21.8,30.28,ESE,110,3.0,3.0,52,0.00,,,0.00,Wunderground v.1.15,2013-04-04 06:20:00,
2013-04-04 01:25:00,37.6,21.5,30.28,ESE,106,2.0,3.0,52,0.00,,,0.00,Wunderground v.1.15,2013-04-04 06:25:00,
2013-04-04 01:35:00,37.5,21.5,30.27,ESE,115,2.0,3.0,52,0.00,,,0.00,Wunderground v.1.15,2013-04-04 06:35:00,
2013-04-04 01:40:00,37.4,21.8,30.27,East,101,3.0,3.0,53,0.00,,,0.00,Wunderground v.1.15,2013-04-04 06:40:00,
2013-04-04 01:50:00,37.3,21.3,30.27,East,93,3.0,3.0,52,0.00,,,0.00,Wunderground v.1.15,2013-04-04 06:50:00,
2013-04-04 02:00:00,37.3,21.3,30.27,ESE,106,3.0,3.0,52,0.00,,,0.00,Wunderground v.1.15,2013-04-04 07:00:00,
2013-04-04 02:05:00,37.3,21.3,30.27,East,101,3.0,3.0,52,0.00,,,0.00,Wunderground v.1.15,2013-04-04 07:05:00,
2013-04-04 02:15:00,37.4,21.4,30.27,ESE,102,3.0,3.0,52,0.00,,,0.00,Wunderground v.1.15,2013-04-04 07:15:00,
2013-04-04 02:20:00,37.4,21.4,30.26,East,98,3.0,3.0,52,0.00,,,0.00,Wunderground v.1.15,2013-04-04 07:20:00,
2013-04-04 02:25:00,37.4,21.4,30.26,ESE,105,3.0,4.0,52,0.00,,,0.00,Wunderground v.1.15,2013-04-04 07:25:00,
2013-04-04 02:30:00,37.2,21.2,30.26,East,96,3.0,4.0,52,0.00,,,0.00,Wunderground v.1.15,2013-04-04 07:30:00,
2013-04-04 02:35:00,37.1,21.5,30.26,ESE,114,3.0,4.0,53,0.00,,,0.00,Wunderground v.1.15,2013-04-04 07:35:00,
2013-04-04 02:45:00,37.1,21.5,30.25,ESE,105,3.0,3.0,53,0.00,,,0.00,Wunderground v.1.15,2013-04-04 07:45:00,
2013-04-04 02:50:00,37.1,21.5,30.25,ESE,109,3.0,3.0,53,0.00,,,0.00,Wunderground v.1.15,2013-04-04 07:50:00,
2013-04-04 02:55:00,37.1,21.5,30.25,ESE,110,3.0,3.0,53,0.00,,,0.00,Wunderground v.1.15,2013-04-04 07:55:00,
2013-04-04 03:00:00,37.1,21.5,30.25,ESE,113,3.0,3.0,53,0.00,,,0.00,Wunderground v.1.15,2013-04-04 08:00:00,
2013-04-04 03:05:00,37.0,21.4,30.25,ESE,120,3.0,3.0,53,0.00,,,0.00,Wunderground v.1.15,2013-04-04 08:05:00,
2013-04-04 03:10:00,36.9,21.3,30.25,ESE,115,3.0,3.0,53,0.00,,,0.00,Wunderground v.1.15,2013-04-04 08:10:00,
2013-04-04 03:20:00,36.9,21.8,30.25,ESE,120,3.0,3.0,54,0.00,,,0.00,Wunderground v.1.15,2013-04-04 08:20:00,
2013-04-04 03:25:00,37.0,21.9,30.24,ESE,115,3.0,4.0,54,0.00,,,0.00,Wunderground v.1.15,2013-04-04 08:25:00,
2013-04-04 03:30:00,36.9,21.8,30.24,SE,126,4.0,4.0,54,0.00,,,0.00,Wunderground v.1.15,2013-04-04 08:30:00,
2013-04-04 03:35:00,36.6,21.9,30.24,ESE,113,4.0,4.0,55,0.00,,,0.00,Wunderground v.1.15,2013-04-04 08:35:00,
2013-04-04 03:40:00,36.4,21.8,30.24,ESE,105,3.0,3.0,55,0.00,,,0.00,Wunderground v.1.15,2013-04-04 08:40:00,
2013-04-04 03:45:00,36.3,21.7,30.24,ESE,112,3.0,3.0,55,0.00,,,0.00,Wunderground v.1.15,2013-04-04 08:45:00,
2013-04-04 03:50:00,36.2,21.6,30.24,East,97,3.0,3.0,55,0.00,,,0.00,Wunderground v.1.15,2013-04-04 08:50:00,
2013-04-04 04:00:00,36.1,21.9,30.24,East,82,2.0,2.0,56,0.00,,,0.00,Wunderground v.1.15,2013-04-04 09:00:00,
2013-04-04 04:05:00,36.0,21.8,30.24,ENE,75,2.0,2.0,56,0.00,,,0.00,Wunderground v.1.15,2013-04-04 09:05:00,
2013-04-04 04:10:00,36.0,21.8,30.24,ENE,75,2.0,2.0,56,0.00,,,0.00,Wunderground v.1.15,2013-04-04 09:10:00,
2013-04-04 04:15:00,36.1,21.9,30.23,ENE,75,2.0,2.0,56,0.00,,,0.00,Wunderground v.1.15,2013-04-04 09:15:00,
2013-04-04 04:20:00,35.9,21.7,30.24,ENE,75,2.0,2.0,56,0.00,,,0.00,Wunderground v.1.15,2013-04-04 09:20:00,
2013-04-04 04:25:00,35.9,21.7,30.23,ENE,75,2.0,2.0,56,0.00,,,0.00,Wunderground v.1.15,2013-04-04 09:25:00,
2013-04-04 04:30:00,35.9,21.7,30.23,ENE,75,2.0,3.0,56,0.00,,,0.00,Wunderground v.1.15,2013-04-04 09:30:00,
2013-04-04 04:35:00,35.8,22.0,30.23,ENE,73,3.0,3.0,57,0.00,,,0.00,Wunderground v.1.15,2013-04-04 09:35:00,
2013-04-04 04:40:00,35.7,21.9,30.23,ENE,71,2.0,2.0,57,0.00,,,0.00,Wunderground v.1.15,2013-04-04 09:40:00,
2013-04-04 04:45:00,35.5,21.8,30.23,ENE,70,2.0,2.0,57,0.00,,,0.00,Wunderground v.1.15,2013-04-04 09:45:00,
2013-04-04 04:50:00,35.6,21.9,30.23,ENE,70,2.0,2.0,57,0.00,,,0.00,Wunderground v.1.15,2013-04-04 09:50:00,
2013-04-04 04:55:00,35.6,21.9,30.23,ENE,72,2.0,2.0,57,0.00,,,0.00,Wunderground v.1.15,2013-04-04 09:55:00,
2013-04-04 05:00:00,35.6,21.9,30.22,East,92,2.0,2.0,57,0.00,,,0.00,Wunderground v.1.15,2013-04-04 10:00:00,
2013-04-04 05:05:00,35.7,21.9,30.22,East,93,2.0,2.0,57,0.00,,,0.00,Wunderground v.1.15,2013-04-04 10:05:00,
2013-04-04 05:10:00,35.6,21.9,30.22,East,91,2.0,2.0,57,0.00,,,0.00,Wunderground v.1.15,2013-04-04 10:10:00,
2013-04-04 05:15:00,35.3,22.0,30.22,East,93,2.0,2.0,58,0.00,,,0.00,Wunderground v.1.15,2013-04-04 10:15:00,
2013-04-04 05:20:00,35.1,21.8,30.22,East,89,2.0,2.0,58,0.00,,,0.00,Wunderground v.1.15,2013-04-04 10:20:00,
2013-04-04 05:25:00,35.2,21.9,30.22,East,93,2.0,2.0,58,0.00,,,0.00,Wunderground v.1.15,2013-04-04 10:25:00,
2013-04-04 05:30:00,35.3,22.0,30.22,ESE,105,2.0,2.0,58,0.00,,,0.00,Wunderground v.1.15,2013-04-04 10:30:00,
2013-04-04 05:35:00,35.3,22.0,30.22,East,101,2.0,2.0,58,0.00,,,0.00,Wunderground v.1.15,2013-04-04 10:35:00,
2013-04-04 05:45:00,35.3,22.0,30.22,ESE,111,1.0,2.0,58,0.00,,,0.00,Wunderground v.1.15,2013-04-04 10:45:00,
2013-04-04 05:50:00,35.3,22.0,30.22,ESE,111,1.0,2.0,58,0.00,,,0.00,Wunderground v.1.15,2013-04-04 10:50:00,
2013-04-04 05:55:00,35.3,22.0,30.22,ESE,110,2.0,2.0,58,0.00,,,0.00,Wunderground v.1.15,2013-04-04 10:55:00,
2013-04-04 06:00:00,35.2,21.9,30.22,ESE,110,2.0,2.0,58,0.00,,,0.00,Wunderground v.1.15,2013-04-04 11:00:00,
2013-04-04 06:05:00,35.2,21.9,30.22,ESE,110,2.0,2.0,58,0.00,,,0.00,Wunderground v.1.15,2013-04-04 11:05:00,
2013-04-04 06:10:00,35.1,21.8,30.22,ESE,110,2.0,2.0,58,0.00,,,0.00,Wunderground v.1.15,2013-04-04 11:10:00,
2013-04-04 06:15:00,35.2,21.9,30.23,ESE,111,1.0,2.0,58,0.00,,,0.00,Wunderground v.1.15,2013-04-04 11:15:00,
2013-04-04 06:20:00,35.2,21.9,30.23,ESE,111,1.0,1.0,58,0.00,,,0.00,Wunderground v.1.15,2013-04-04 11:20:00,
2013-04-04 06:25:00,35.2,21.9,30.23,ESE,112,1.0,1.0,58,0.00,,,0.00,Wunderground v.1.15,2013-04-04 11:25:00,
2013-04-04 06:30:00,35.2,21.9,30.23,ESE,113,1.0,1.0,58,0.00,,,0.00,Wunderground v.1.15,2013-04-04 11:30:00,
2013-04-04 06:35:00,35.2,21.9,30.23,ESE,113,1.0,1.0,58,0.00,,,0.00,Wunderground v.1.15,2013-04-04 11:35:00,
2013-04-04 06:40:00,35.0,22.1,30.23,ESE,122,1.0,2.0,59,0.00,,,0.00,Wunderground v.1.15,2013-04-04 11:40:00,
2013-04-04 06:45:00,34.9,22.0,30.23,SE,140,2.0,2.0,59,0.00,,,0.00,Wunderground v.1.15,2013-04-04 11:45:00,
2013-04-04 06:50:00,34.9,22.0,30.23,SE,139,2.0,2.0,59,0.00,,,0.00,Wunderground v.1.15,2013-04-04 11:50:00,
2013-04-04 06:55:00,34.9,22.0,30.23,SE,139,2.0,2.0,59,0.00,,,0.00,Wunderground v.1.15,2013-04-04 11:55:00,
2013-04-04 07:00:00,35.1,22.2,30.23,SE,139,2.0,2.0,59,0.00,,,0.00,Wunderground v.1.15,2013-04-04 12:00:00,
2013-04-04 07:05:00,35.2,22.3,30.23,SE,139,1.0,2.0,59,0.00,,,0.00,Wunderground v.1.15,2013-04-04 12:05:00,
2013-04-04 07:10:00,35.4,22.1,30.23,SE,139,1.0,1.0,58,0.00,,,0.00,Wunderground v.1.15,2013-04-04 12:10:00,
2013-04-04 07:15:00,35.7,22.4,30.23,SE,138,1.0,2.0,58,0.00,,,0.00,Wunderground v.1.15,2013-04-04 12:15:00,
2013-04-04 07:20:00,35.7,22.4,30.23,SE,139,2.0,2.0,58,0.00,,,0.00,Wunderground v.1.15,2013-04-04 12:20:00,
2013-04-04 07:25:00,35.7,22.4,30.23,SE,139,2.0,2.0,58,0.00,,,0.00,Wunderground v.1.15,2013-04-04 12:25:00,
2013-04-04 07:30:00,35.8,22.5,30.23,SE,139,2.0,3.0,58,0.00,,,0.00,Wunderground v.1.15,2013-04-04 12:30:00,
2013-04-04 07:35:00,35.7,22.4,30.23,SE,139,3.0,3.0,58,0.00,,,0.00,Wunderground v.1.15,2013-04-04 12:35:00,
2013-04-04 07:40:00,35.7,22.8,30.23,SSE,148,3.0,3.0,59,0.00,,,0.00,Wunderground v.1.15,2013-04-04 12:40:00,
2013-04-04 07:45:00,35.7,23.2,30.22,SSE,155,3.0,3.0,60,0.00,,,0.00,Wunderground v.1.15,2013-04-04 12:45:00,
2013-04-04 07:50:00,35.7,23.9,30.22,SSE,148,3.0,3.0,62,0.00,,,0.00,Wunderground v.1.15,2013-04-04 12:50:00,
2013-04-04 07:55:00,36.0,25.4,30.22,SE,145,2.0,3.0,65,0.00,,,0.00,Wunderground v.1.15,2013-04-04 12:55:00,
2013-04-04 08:00:00,36.6,26.3,30.22,SE,131,1.0,1.0,66,0.00,,,0.00,Wunderground v.1.15,2013-04-04 13:00:00,
2013-04-04 08:05:00,37.2,25.8,30.22,SE,136,2.0,4.0,63,0.00,,,0.00,Wunderground v.1.15,2013-04-04 13:05:00,
2013-04-04 08:10:00,37.6,25.7,30.22,ESE,115,3.0,4.0,62,0.00,,,0.00,Wunderground v.1.15,2013-04-04 13:10:00,
2013-04-04 08:20:00,38.6,26.7,30.22,SE,134,4.0,4.0,62,0.00,,,0.00,Wunderground v.1.15,2013-04-04 13:20:00,
2013-04-04 08:25:00,39.1,26.4,30.22,SE,143,4.0,4.0,60,0.00,,,0.00,Wunderground v.1.15,2013-04-04 13:25:00,
2013-04-04 08:30:00,39.6,26.0,30.21,SE,142,4.0,4.0,58,0.00,,,0.00,Wunderground v.1.15,2013-04-04 13:30:00,
2013-04-04 08:35:00,40.0,26.4,30.21,SSE,150,4.0,5.0,58,0.00,,,0.00,Wunderground v.1.15,2013-04-04 13:35:00,
2013-04-04 08:40:00,40.4,25.9,30.21,SE,138,4.0,5.0,56,0.00,,,0.00,Wunderground v.1.15,2013-04-04 13:40:00,
2013-04-04 08:45:00,40.6,26.1,30.21,SSW,198,5.0,5.0,56,0.00,,,0.00,Wunderground v.1.15,2013-04-04 13:45:00,
2013-04-04 08:50:00,41.0,25.6,30.21,SSE,163,5.0,5.0,54,0.00,,,0.00,Wunderground v.1.15,2013-04-04 13:50:00,
2013-04-04 08:55:00,41.2,25.8,30.21,SSE,150,5.0,7.0,54,0.00,,,0.00,Wunderground v.1.15,2013-04-04 13:55:00,
2013-04-04 09:00:00,41.5,25.2,30.20,South,176,6.0,7.0,52,0.00,,,0.00,Wunderground v.1.15,2013-04-04 14:00:00,
2013-04-04 09:10:00,42.0,25.6,30.20,South,169,7.0,7.0,52,0.00,,,0.00,Wunderground v.1.15,2013-04-04 14:10:00,
2013-04-04 09:15:00,42.3,25.0,30.20,South,179,7.0,7.0,50,0.00,,,0.00,Wunderground v.1.15,2013-04-04 14:15:00,
2013-04-04 09:20:00,42.7,24.8,30.20,SSE,150,7.0,7.0,49,0.00,,,0.00,Wunderground v.1.15,2013-04-04 14:20:00,
2013-04-04 09:25:00,43.1,25.2,30.20,SSE,148,7.0,7.0,49,0.00,,,0.00,Wunderground v.1.15,2013-04-04 14:25:00,
2013-04-04 09:30:00,43.6,25.7,30.20,SSE,154,7.0,7.0,49,0.00,,,0.00,Wunderground v.1.15,2013-04-04 14:30:00,
2013-04-04 09:35:00,43.7,25.3,30.19,SSE,150,7.0,7.0,48,0.00,,,0.00,Wunderground v.1.15,2013-04-04 14:35:00,
2013-04-04 09:40:00,44.3,25.3,30.19,SSW,195,6.0,7.0,47,0.00,,,0.00,Wunderground v.1.15,2013-04-04 14:40:00,
2013-04-04 09:45:00,44.5,25.5,30.19,South,172,6.0,7.0,47,0.00,,,0.00,Wunderground v.1.15,2013-04-04 14:45:00,
2013-04-04 09:50:00,44.8,24.7,30.19,SW,222,5.0,6.0,45,0.00,,,0.00,Wunderground v.1.15,2013-04-04 14:50:00,
2013-04-04 09:55:00,45.3,24.6,30.19,SSE,149,6.0,7.0,44,0.00,,,0.00,Wunderground v.1.15,2013-04-04 14:55:00,
2013-04-04 10:00:00,45.5,23.1,30.19,SE,138,6.0,6.0,41,0.00,,,0.00,Wunderground v.1.15,2013-04-04 15:00:00,
2013-04-04 10:05:00,45.9,23.5,30.18,South,172,6.0,6.0,41,0.00,,,0.00,Wunderground v.1.15,2013-04-04 15:05:00,
2013-04-04 10:10:00,46.1,23.1,30.18,SW,228,6.0,6.0,40,0.00,,,0.00,Wunderground v.1.15,2013-04-04 15:10:00,
2013-04-04 10:15:00,46.7,24.8,30.18,SSW,201,6.0,8.0,42,0.00,,,0.00,Wunderground v.1.15,2013-04-04 15:15:00,
2013-04-04 10:20:00,46.6,23.5,30.18,South,187,7.0,7.0,40,0.00,,,0.00,Wunderground v.1.15,2013-04-04 15:20:00,
2013-04-04 10:25:00,46.7,21.8,30.18,SSW,200,6.0,7.0,37,0.00,,,0.00,Wunderground v.1.15,2013-04-04 15:25:00,
2013-04-04 10:30:00,47.0,23.3,30.18,South,176,5.0,8.0,39,0.00,,,0.00,Wunderground v.1.15,2013-04-04 15:30:00,
2013-04-04 10:40:00,47.5,22.5,30.18,SSW,207,5.0,7.0,37,0.00,,,0.00,Wunderground v.1.15,2013-04-04 15:40:00,
2013-04-04 10:45:00,47.5,23.7,30.17,SW,214,5.0,7.0,39,0.00,,,0.00,Wunderground v.1.15,2013-04-04 15:45:00,
2013-04-04 10:50:00,47.6,22.6,30.17,SSW,203,5.0,5.0,37,0.00,,,0.00,Wunderground v.1.15,2013-04-04 15:50:00,
2013-04-04 10:55:00,47.5,22.5,30.17,SSW,197,5.0,5.0,37,0.00,,,0.00,Wunderground v.1.15,2013-04-04 15:55:00,
2013-04-04 11:00:00,47.8,22.8,30.17,SW,236,6.0,6.0,37,0.00,,,0.00,Wunderground v.1.15,2013-04-04 16:00:00,
2013-04-04 11:10:00,48.4,22.0,30.17,SSW,203,4.0,4.0,35,0.00,,,0.00,Wunderground v.1.15,2013-04-04 16:10:00,
2013-04-04 11:15:00,48.8,23.0,30.17,SW,218,3.0,4.0,36,0.00,,,0.00,Wunderground v.1.15,2013-04-04 16:15:00,
2013-04-04 11:25:00,49.3,25.4,30.16,West,269,6.0,6.0,39,0.00,,,0.00,Wunderground v.1.15,2013-04-04 16:25:00,
2013-04-04 11:30:00,49.3,23.4,30.16,WSW,257,6.0,6.0,36,0.00,,,0.00,Wunderground v.1.15,2013-04-04 16:30:00,
2013-04-04 11:35:00,49.4,24.8,30.16,West,281,4.0,6.0,38,0.00,,,0.00,Wunderground v.1.15,2013-04-04 16:35:00,
2013-04-04 11:40:00,50.2,24.9,30.16,WNW,284,4.0,4.0,37,0.00,,,0.00,Wunderground v.1.15,2013-04-04 16:40:00,
2013-04-04 12:32:00,51.9,27.1,30.13,East,90,1.0,-999.0,38,0.00,,,0.00,Wunderground v.1.15,2013-04-04 17:32:00,
2013-04-04 12:37:00,52.3,26.1,30.13,WSW,248,8.0,-999.0,36,0.00,,,0.00,Wunderground v.1.15,2013-04-04 17:37:00,
2013-04-04 12:42:00,52.6,27.0,30.13,WNW,293,3.0,-999.0,37,0.00,,,0.00,Wunderground v.1.15,2013-04-04 17:42:00,
2013-04-04 12:47:00,53.1,26.8,30.13,SW,225,1.0,-999.0,36,0.00,,,0.00,Wunderground v.1.15,2013-04-04 17:47:00,
2013-04-04 12:52:00,53.4,25.0,30.13,SW,225,5.0,-999.0,33,0.00,,,0.00,Wunderground v.1.15,2013-04-04 17:52:00,
2013-04-04 12:57:00,53.1,25.4,30.12,SSE,158,3.0,-999.0,34,0.00,,,0.00,Wunderground v.1.15,2013-04-04 17:57:00,
2013-04-04 13:02:00,53.7,28.0,30.12,West,270,2.0,-999.0,37,0.00,,,0.00,Wunderground v.1.15,2013-04-04 18:02:00,
2013-04-04 13:12:00,54.3,25.0,30.12,NW,315,6.0,-999.0,32,0.00,,,0.00,Wunderground v.1.15,2013-04-04 18:12:00,
2013-04-04 13:17:00,53.9,25.4,30.12,WNW,293,5.0,-999.0,33,0.00,,,0.00,Wunderground v.1.15,2013-04-04 18:17:00,
2013-04-04 13:22:00,54.1,26.3,30.11,WSW,248,1.0,-999.0,34,0.00,,,0.00,Wunderground v.1.15,2013-04-04 18:22:00,
2013-04-04 13:27:00,54.7,26.1,30.11,WNW,293,5.0,-999.0,33,0.00,,,0.00,Wunderground v.1.15,2013-04-04 18:27:00,
2013-04-04 13:32:00,54.6,26.8,30.11,West,270,3.0,-999.0,34,0.00,,,0.00,Wunderground v.1.15,2013-04-04 18:32:00,
2013-04-04 13:37:00,55.1,26.5,30.10,WNW,293,1.0,-999.0,33,0.00,,,0.00,Wunderground v.1.15,2013-04-04 18:37:00,
2013-04-04 13:42:00,55.4,26.0,30.10,WSW,248,3.0,-999.0,32,0.00,,,0.00,Wunderground v.1.15,2013-04-04 18:42:00,
2013-04-04 13:47:00,55.8,27.1,30.10,SW,225,6.0,-999.0,33,0.00,,,0.00,Wunderground v.1.15,2013-04-04 18:47:00,
2013-04-04 13:52:00,56.8,28.0,30.09,WNW,293,1.0,-999.0,33,0.00,,,0.00,Wunderground v.1.15,2013-04-04 18:52:00,
2013-04-04 13:57:00,56.4,25.3,30.09,NW,315,3.0,-999.0,30,0.00,,,0.00,Wunderground v.1.15,2013-04-04 18:57:00,
2013-04-04 14:02:00,55.8,24.8,30.09,NW,315,1.0,-999.0,30,0.00,,,0.00,Wunderground v.1.15,2013-04-04 19:02:00,
2013-04-04 14:07:00,55.8,24.8,30.09,NW,315,2.0,-999.0,30,0.00,,,0.00,Wunderground v.1.15,2013-04-04 19:07:00,
2013-04-04 14:12:00,56.0,25.8,30.09,NW,315,5.0,-999.0,31,0.00,,,0.00,Wunderground v.1.15,2013-04-04 19:12:00,
2013-04-04 14:17:00,56.1,27.4,30.09,WNW,293,4.0,-999.0,33,0.00,,,0.00,Wunderground v.1.15,2013-04-04 19:17:00,
2013-04-04 14:22:00,56.2,26.7,30.09,WNW,293,3.0,-999.0,32,0.00,,,0.00,Wunderground v.1.15,2013-04-04 19:22:00,
2013-04-04 14:27:00,56.9,26.5,30.09,WNW,293,1.0,-999.0,31,0.00,,,0.00,Wunderground v.1.15,2013-04-04 19:27:00,
2013-04-04 14:32:00,57.0,27.4,30.08,WNW,293,4.0,-999.0,32,0.00,,,0.00,Wunderground v.1.15,2013-04-04 19:32:00,
2013-04-04 14:37:00,56.8,26.5,30.08,WNW,293,5.0,-999.0,31,0.00,,,0.00,Wunderground v.1.15,2013-04-04 19:37:00,
2013-04-04 14:42:00,56.7,25.6,30.08,WNW,293,6.0,-999.0,30,0.00,,,0.00,Wunderground v.1.15,2013-04-04 19:42:00,
2013-04-04 14:47:00,56.6,25.5,30.08,NW,315,5.0,-999.0,30,0.00,,,0.00,Wunderground v.1.15,2013-04-04 19:47:00,
2013-04-04 14:52:00,57.0,25.8,30.07,West,270,4.0,-999.0,30,0.00,,,0.00,Wunderground v.1.15,2013-04-04 19:52:00,
2013-04-04 14:57:00,58.0,26.7,30.07,West,270,2.0,-999.0,30,0.00,,,0.00,Wunderground v.1.15,2013-04-04 19:57:00,
2013-04-04 15:02:00,57.6,24.7,30.07,West,270,2.0,-999.0,28,0.00,,,0.00,Wunderground v.1.15,2013-04-04 20:02:00,
2013-04-04 15:07:00,57.3,26.9,30.07,SW,225,1.0,-999.0,31,0.00,,,0.00,Wunderground v.1.15,2013-04-04 20:07:00,
2013-04-04 15:12:00,57.6,27.2,30.07,WNW,293,4.0,-999.0,31,0.00,,,0.00,Wunderground v.1.15,2013-04-04 20:12:00,
2013-04-04 15:17:00,58.2,26.9,30.06,NW,315,4.0,-999.0,30,0.00,,,0.00,Wunderground v.1.15,2013-04-04 20:17:00,
2013-04-04 15:22:00,58.6,25.6,30.06,NW,315,4.0,-999.0,28,0.00,,,0.00,Wunderground v.1.15,2013-04-04 20:22:00,
2013-04-04 15:27:00,58.3,26.1,30.06,WSW,248,5.0,-999.0,29,0.00,,,0.00,Wunderground v.1.15,2013-04-04 20:27:00,
2013-04-04 15:32:00,58.5,24.6,30.06,WSW,248,7.0,-999.0,27,0.00,,,0.00,Wunderground v.1.15,2013-04-04 20:32:00,
2013-04-04 15:37:00,58.4,26.2,30.06,WSW,248,6.0,-999.0,29,0.00,,,0.00,Wunderground v.1.15,2013-04-04 20:37:00,
2013-04-04 15:42:00,58.4,25.4,30.05,WSW,248,5.0,-999.0,28,0.00,,,0.00,Wunderground v.1.15,2013-04-04 20:42:00,
2013-04-04 15:47:00,58.6,27.2,30.05,West,270,4.0,-999.0,30,0.00,,,0.00,Wunderground v.1.15,2013-04-04 20:47:00,
2013-04-04 15:52:00,58.7,24.8,30.05,NW,315,4.0,-999.0,27,0.00,,,0.00,Wunderground v.1.15,2013-04-04 20:52:00,
2013-04-04 15:57:00,58.7,25.6,30.05,WNW,293,4.0,-999.0,28,0.00,,,0.00,Wunderground v.1.15,2013-04-04 20:57:00,
2013-04-04 16:02:00,58.9,24.9,30.05,SW,225,4.0,-999.0,27,0.00,,,0.00,Wunderground v.1.15,2013-04-04 21:02:00,
2013-04-04 16:07:00,59.0,26.8,30.05,WSW,248,4.0,-999.0,29,0.00,,,0.00,Wunderground v.1.15,2013-04-04 21:07:00,
2013-04-04 16:12:00,59.2,25.2,30.05,WSW,248,1.0,-999.0,27,0.00,,,0.00,Wunderground v.1.15,2013-04-04 21:12:00,
2013-04-04 16:17:00,59.3,27.0,30.05,NW,315,3.0,-999.0,29,0.00,,,0.00,Wunderground v.1.15,2013-04-04 21:17:00,
2013-04-04 16:22:00,59.7,26.5,30.04,West,270,5.0,-999.0,28,0.00,,,0.00,Wunderground v.1.15,2013-04-04 21:22:00,
2013-04-04 16:33:00,59.4,23.5,30.04,SW,225,4.0,-999.0,25,0.00,,,0.00,Wunderground v.1.15,2013-04-04 21:33:00,
2013-04-04 16:35:00,59.2,25.2,30.04,NW,307,4.0,4.0,27,0.00,,,0.00,Wunderground v.1.15,2013-04-04 21:35:00,
2013-04-04 16:40:00,59.1,26.0,30.04,NW,304,5.0,5.0,28,0.00,,,0.00,Wunderground v.1.15,2013-04-04 21:40:00,
2013-04-04 16:45:00,59.1,26.0,30.03,NW,305,5.0,5.0,28,0.00,,,0.00,Wunderground v.1.15,2013-04-04 21:45:00,
2013-04-04 16:50:00,59.3,26.2,30.03,NW,313,4.0,5.0,28,0.00,,,0.00,Wunderground v.1.15,2013-04-04 21:50:00,
2013-04-04 16:55:00,59.7,27.4,30.03,WSW,250,4.0,4.0,29,0.00,,,0.00,Wunderground v.1.15,2013-04-04 21:55:00,
2013-04-04 17:00:00,60.0,26.8,30.03,NW,304,4.0,4.0,28,0.00,,,0.00,Wunderground v.1.15,2013-04-04 22:00:00,
2013-04-04 17:10:00,59.8,26.6,30.03,SW,222,4.0,9.0,28,0.00,,,0.00,Wunderground v.1.15,2013-04-04 22:10:00,
2013-04-04 17:15:00,59.4,25.4,30.03,WSW,241,7.0,9.0,27,0.00,,,0.00,Wunderground v.1.15,2013-04-04 22:15:00,
2013-04-04 17:20:00,59.5,26.3,30.03,WSW,253,6.0,6.0,28,0.00,,,0.00,Wunderground v.1.15,2013-04-04 22:20:00,
2013-04-04 17:25:00,59.7,26.5,30.03,WSW,246,5.0,6.0,28,0.00,,,0.00,Wunderground v.1.15,2013-04-04 22:25:00,
2013-04-04 17:30:00,59.6,26.4,30.03,WNW,297,4.0,5.0,28,0.00,,,0.00,Wunderground v.1.15,2013-04-04 22:30:00,
2013-04-04 17:35:00,59.5,26.3,30.03,West,269,5.0,6.0,28,0.00,,,0.00,Wunderground v.1.15,2013-04-04 22:35:00,
2013-04-04 17:40:00,59.6,25.5,30.03,WSW,257,5.0,5.0,27,0.00,,,0.00,Wunderground v.1.15,2013-04-04 22:40:00,
2013-04-04 17:45:00,59.5,25.5,30.03,WSW,240,5.0,7.0,27,0.00,,,0.00,Wunderground v.1.15,2013-04-04 22:45:00,
2013-04-04 17:50:00,59.5,23.6,30.03,West,278,5.0,5.0,25,0.00,,,0.00,Wunderground v.1.15,2013-04-04 22:50:00,
2013-04-04 17:55:00,59.6,24.6,30.03,WSW,252,4.0,5.0,26,0.00,,,0.00,Wunderground v.1.15,2013-04-04 22:55:00,
2013-04-04 18:00:00,59.4,24.5,30.03,WSW,246,3.0,4.0,26,0.00,,,0.00,Wunderground v.1.15,2013-04-04 23:00:00,
2013-04-04 18:05:00,59.5,24.5,30.03,WSW,255,3.0,4.0,26,0.00,,,0.00,Wunderground v.1.15,2013-04-04 23:05:00,
2013-04-04 18:10:00,59.5,24.5,30.03,NW,308,3.0,3.0,26,0.00,,,0.00,Wunderground v.1.15,2013-04-04 23:10:00,
2013-04-04 18:15:00,59.5,24.5,30.03,West,281,2.0,4.0,26,0.00,,,0.00,Wunderground v.1.15,2013-04-04 23:15:00,
2013-04-04 18:20:00,59.6,25.5,30.03,West,271,3.0,3.0,27,0.00,,,0.00,Wunderground v.1.15,2013-04-04 23:20:00,
2013-04-04 18:25:00,59.8,24.8,30.03,NW,307,2.0,6.0,26,0.00,,,0.00,Wunderground v.1.15,2013-04-04 23:25:00,
2013-04-04 18:30:00,59.7,25.6,30.03,SW,229,2.0,3.0,27,0.00,,,0.00,Wunderground v.1.15,2013-04-04 23:30:00,
2013-04-04 18:35:00,59.5,25.5,30.03,West,263,3.0,3.0,27,0.00,,,0.00,Wunderground v.1.15,2013-04-04 23:35:00,
2013-04-04 18:40:00,59.5,26.3,30.02,West,260,2.0,2.0,28,0.00,,,0.00,Wunderground v.1.15,2013-04-04 23:40:00,
2013-04-04 18:45:00,59.2,26.9,30.03,WSW,253,2.0,2.0,29,0.00,,,0.00,Wunderground v.1.15,2013-04-04 23:45:00,
2013-04-04 18:50:00,58.9,26.7,30.03,West,275,1.0,1.0,29,0.00,,,0.00,Wunderground v.1.15,2013-04-04 23:50:00,
2013-04-04 18:55:00,58.5,26.3,30.02,WSW,241,1.0,2.0,29,0.00,,,0.00,Wunderground v.1.15,2013-04-04 23:55:00,
2013-04-04 19:05:00,56.8,26.5,30.02,WSW,255,2.0,2.0,31,0.00,,,0.00,Wunderground v.1.15,2013-04-05 00:05:00,
2013-04-04 19:10:00,56.1,26.6,30.02,WSW,258,2.0,2.0,32,0.00,,,0.00,Wunderground v.1.15,2013-04-05 00:10:00,
2013-04-04 19:15:00,55.6,26.2,30.02,West,261,1.0,2.0,32,0.00,,,0.00,Wunderground v.1.15,2013-04-05 00:15:00,
2013-04-04 19:25:00,54.8,26.9,30.02,WSW,252,1.0,1.0,34,0.00,,,0.00,Wunderground v.1.15,2013-04-05 00:25:00,
2013-04-04 19:30:00,54.3,27.2,30.02,WSW,251,1.0,1.0,35,0.00,,,0.00,Wunderground v.1.15,2013-04-05 00:30:00,
2013-04-04 19:35:00,53.8,26.8,30.02,WSW,252,0.0,1.0,35,0.00,,,0.00,Wunderground v.1.15,2013-04-05 00:35:00,
2013-04-04 19:40:00,53.0,27.4,30.02,WSW,252,0.0,0.0,37,0.00,,,0.00,Wunderground v.1.15,2013-04-05 00:40:00,
2013-04-04 19:45:00,52.4,27.5,30.02,WSW,251,0.0,0.0,38,0.00,,,0.00,Wunderground v.1.15,2013-04-05 00:45:00,
2013-04-04 19:50:00,51.8,27.6,30.02,WSW,252,0.0,0.0,39,0.00,,,0.00,Wunderground v.1.15,2013-04-05 00:50:00,
2013-04-04 19:55:00,51.3,27.2,30.02,WSW,252,0.0,0.0,39,0.00,,,0.00,Wunderground v.1.15,2013-04-05 00:55:00,
2013-04-04 20:00:00,50.8,26.7,30.01,WSW,252,0.0,0.0,39,0.00,,,0.00,Wunderground v.1.15,2013-04-05 01:00:00,
2013-04-04 20:05:00,50.5,27.0,30.02,WSW,251,0.0,0.0,40,0.00,,,0.00,Wunderground v.1.15,2013-04-05 01:05:00,
2013-04-04 20:10:00,50.6,27.1,30.02,WSW,251,0.0,0.0,40,0.00,,,0.00,Wunderground v.1.15,2013-04-05 01:10:00,
2013-04-04 20:15:00,50.5,27.0,30.02,WSW,252,0.0,0.0,40,0.00,,,0.00,Wunderground v.1.15,2013-04-05 01:15:00,
2013-04-04 20:20:00,50.4,27.0,30.02,WSW,252,0.0,0.0,40,0.00,,,0.00,Wunderground v.1.15,2013-04-05 01:20:00,
2013-04-04 20:25:00,50.4,26.3,30.02,WSW,252,0.0,0.0,39,0.00,,,0.00,Wunderground v.1.15,2013-04-05 01:25:00,
2013-04-04 20:30:00,50.3,26.3,30.02,WSW,252,0.0,0.0,39,0.00,,,0.00,Wunderground v.1.15,2013-04-05 01:30:00,
2013-04-04 20:35:00,50.3,26.3,30.02,WSW,251,0.0,0.0,39,0.00,,,0.00,Wunderground v.1.15,2013-04-05 01:35:00,
2013-04-04 20:40:00,50.3,26.3,30.02,WSW,252,0.0,0.0,39,0.00,,,0.00,Wunderground v.1.15,2013-04-05 01:40:00,
2013-04-04 20:50:00,50.3,25.6,30.03,WSW,253,0.0,0.0,38,0.00,,,0.00,Wunderground v.1.15,2013-04-05 01:50:00,
2013-04-04 20:55:00,50.2,25.5,30.03,WSW,253,0.0,0.0,38,0.00,,,0.00,Wunderground v.1.15,2013-04-05 01:55:00,
2013-04-04 21:00:00,50.0,25.4,30.03,WSW,253,0.0,0.0,38,0.00,,,0.00,Wunderground v.1.15,2013-04-05 02:00:00,
2013-04-04 21:05:00,49.8,25.2,30.03,WSW,252,0.0,0.0,38,0.00,,,0.00,Wunderground v.1.15,2013-04-05 02:05:00,
2013-04-04 21:10:00,49.7,25.1,30.03,WSW,253,0.0,0.0,38,0.00,,,0.00,Wunderground v.1.15,2013-04-05 02:10:00,
2013-04-04 21:15:00,49.5,25.5,30.03,WSW,253,0.0,0.0,39,0.00,,,0.00,Wunderground v.1.15,2013-04-05 02:15:00,
2013-04-04 21:20:00,49.2,25.3,30.03,WSW,253,0.0,0.0,39,0.00,,,0.00,Wunderground v.1.15,2013-04-05 02:20:00,
2013-04-04 21:25:00,48.9,25.6,30.03,WSW,252,0.0,0.0,40,0.00,,,0.00,Wunderground v.1.15,2013-04-05 02:25:00,
2013-04-04 21:30:00,48.8,25.5,30.03,WSW,249,0.0,0.0,40,0.00,,,0.00,Wunderground v.1.15,2013-04-05 02:30:00,
2013-04-04 21:35:00,48.8,24.9,30.03,WSW,250,0.0,0.0,39,0.00,,,0.00,Wunderground v.1.15,2013-04-05 02:35:00,
2013-04-04 21:40:00,48.4,25.2,30.03,WSW,249,0.0,0.0,40,0.00,,,0.00,Wunderground v.1.15,2013-04-05 02:40:00,
2013-04-04 21:45:00,48.4,24.6,30.03,SW,233,0.0,1.0,39,0.00,,,0.00,Wunderground v.1.15,2013-04-05 02:45:00,
2013-04-04 21:50:00,48.6,24.7,30.03,SW,231,1.0,2.0,39,0.00,,,0.00,Wunderground v.1.15,2013-04-05 02:50:00,
2013-04-04 21:55:00,48.8,24.3,30.03,SW,226,1.0,2.0,38,0.00,,,0.00,Wunderground v.1.15,2013-04-05 02:55:00,
2013-04-04 22:00:00,48.7,24.2,30.03,SW,228,1.0,1.0,38,0.00,,,0.00,Wunderground v.1.15,2013-04-05 03:00:00,
2013-04-04 22:10:00,48.0,24.8,30.03,SW,224,0.0,0.0,40,0.00,,,0.00,Wunderground v.1.15,2013-04-05 03:10:00,
2013-04-04 22:15:00,47.9,24.1,30.03,SW,225,0.0,1.0,39,0.00,,,0.00,Wunderground v.1.15,2013-04-05 03:15:00,
2013-04-04 22:20:00,48.1,24.3,30.03,WSW,240,1.0,1.0,39,0.00,,,0.00,Wunderground v.1.15,2013-04-05 03:20:00,
2013-04-04 22:30:00,48.0,24.2,30.03,WSW,240,1.0,1.0,39,0.00,,,0.00,Wunderground v.1.15,2013-04-05 03:30:00,
2013-04-04 22:35:00,47.9,24.7,30.03,WSW,257,1.0,1.0,40,0.00,,,0.00,Wunderground v.1.15,2013-04-05 03:35:00,
2013-04-04 22:40:00,47.7,24.5,30.03,WSW,257,1.0,1.0,40,0.00,,,0.00,Wunderground v.1.15,2013-04-05 03:40:00,
2013-04-04 22:45:00,47.6,25.6,30.03,West,262,1.0,1.0,42,0.00,,,0.00,Wunderground v.1.15,2013-04-05 03:45:00,
2013-04-04 22:55:00,46.4,25.6,30.03,West,262,1.0,1.0,44,0.00,,,0.00,Wunderground v.1.15,2013-04-05 03:55:00,
2013-04-04 23:00:00,46.4,25.6,30.03,West,262,1.0,1.0,44,0.00,,,0.00,Wunderground v.1.15,2013-04-05 04:00:00,
2013-04-04 23:05:00,46.4,25.6,30.03,West,262,1.0,1.0,44,0.00,,,0.00,Wunderground v.1.15,2013-04-05 04:05:00,
2013-04-04 23:10:00,46.3,25.6,30.03,West,262,1.0,1.0,44,0.00,,,0.00,Wunderground v.1.15,2013-04-05 04:10:00,
2013-04-04 23:20:00,46.0,25.8,30.03,West,262,1.0,1.0,45,0.00,,,0.00,Wunderground v.1.15,2013-04-05 04:20:00,
2013-04-04 23:25:00,45.6,26.5,30.04,WNW,290,1.0,1.0,47,0.00,,,0.00,Wunderground v.1.15,2013-04-05 04:25:00,
2013-04-04 23:30:00,45.1,26.6,30.04,WNW,293,1.0,1.0,48,0.00,,,0.00,Wunderground v.1.15,2013-04-05 04:30:00,
2013-04-04 23:35:00,44.8,26.8,30.04,WNW,293,1.0,1.0,49,0.00,,,0.00,Wunderground v.1.15,2013-04-05 04:35:00,
2013-04-04 23:40:00,44.8,26.8,30.04,NW,313,1.0,1.0,49,0.00,,,0.00,Wunderground v.1.15,2013-04-05 04:40:00,
2013-04-04 23:45:00,45.1,27.1,30.04,WNW,294,1.0,1.0,49,0.00,,,0.00,Wunderground v.1.15,2013-04-05 04:45:00,
2013-04-04 23:50:00,45.5,27.4,30.04,NW,304,1.0,2.0,49,0.00,,,0.00,Wunderground v.1.15,2013-04-05 04:50:00,
2013-04-04 23:55:00,45.6,27.5,30.04,WNW,302,1.0,2.0,49,0.00,,,0.00,Wunderground v.1.15,2013-04-05 04:55:00,